Location: Holyhead Bay
(53.3667°N, 4.6667°W)
Time: 22:51:55
(UTC+00:00)

Cosmos 1408 Rocket - Pass Details

Date: 12 April 2021
Orbit: 601 x 631 km, 82.6° (Epoch: 16 May)

Event Time Altitude Azimuth Distance (km) Brightness Sun altitude
Rises 23:36:19 0° 344° (NNW) 2,867 8.3 -26.9°
Reaches altitude 10° 23:38:37 10° 337° (NNW) 1,958 7.1 -27.0°
Enters shadow 23:41:59 39° 293° (WNW) 920 4.6 -27.1°
